Location: ???????
(55.4362°N, 38.1183°E)
Time: 17:40:20
(UTC+00:00)

Meteor 1-4 Rocket - Pass Details

Date: 17 June 2021
Orbit: 447 x 499 km, 81.2° (Epoch: 29 July)

Event Time Altitude Azimuth Distance (km) Brightness Sun altitude
Rises 21:34:36 0° 341° (NNW) 2,504 7.7 -11.2°
Reaches altitude 10° 21:36:45 10° 335° (NNW) 1,615 6.3 -11.1°
Maximum altitude 21:40:06 43° 263° (W) 656 3.1 -11.1°
Enters shadow 21:42:28 17° 197° (SSW) 1,223 4.0 -11.1°
